OPS 4682 DEB, 18427

Orbit data source: Space-Track

OPS 4682 DEB, 18427 is space debris in LEO originally from a launch on Sat, 03 Apr 1965 UTC launched from the Air Force Western Test Range (AFWTR). Debris objects in space refer to the collection of defunct objects orbiting the Earth. Examples of debris include non-operational satellites, rocket bodies, and fragments generated from explosions, collisions, or faulty payload assembly.

Loading next visibility...
Identifier
18427, 1965-027AB
Orbit
LEO
Country
Flag of USUS
Related business
Manufacturer
Unknown
Mission
Spacecraft
Bus & Motor
Unknown
Mass
Unknown
Launch date (UTC)
1965-04-03 (61 years ago)
Launch vehicle
Unknown
Launch site
Air Force Western Test Range (AFWTR)
Object type
Payload
Rocket body
Debris
Shape & HBR
Unknown shape, 0.1 m
Radar Cross Section
Small (<0.1 m²)

Expand to show TLE details & history
Last TLE update: 17 hours ago

TLE from 17 hours ago
0 OPS 4682 DEB
1 18427U 65027AB  25349.27148649  .00000820  00000-0  25257-2 0  9999
2 18427  90.2688 359.8101 0020009 357.1650  19.9784 13.04660318934356
Epoch: 2025-12-15T06:30Z
TLE epoch observation values (Epoch: 2025-12-15T06:30:56.432Z)
Latitude
17.20807°
Longitude
177.81969°
Altitude
1,231.847 km
Speed
7.247 km/s
True Right ascension
23h 58m 54s
True Declination
17° 07' 02"
Sunlit
Object was in daylight at epoch
Visualization orbit readout
Latitude
Unknown
Longitude
Unknown
Altitude
Unknown
Speed
Unknown
Apparent Right ascension
Unknown
Apparent Declination
Unknown
Sunlit
N/A
Visualization observer readout
Local Sidereal Time
22:10:46
Azimuth
Unknown
Elevation
Unknown
Doppler factor
Unknown
Orbital elements
Apogee altitude
1,256.247 km
Perigee altitude
1,225.757 km
Semi-major axis
7,619.139 km
Eccentricity
0.002
Inclination
90.2688°
RAAN
359.8101°
Arg. of periapsis
357.165°
True anomaly
20.05692°
Mean anomaly
19.9784°
Eccentric anomaly
20.01764°
Mean motion
3.26351 °/min
Orbital period
110.31 mins
BSTAR
0.0025257
Loading maneuver chart data...
Computing Atmospheric mass density...
Loading historical data...
Loading historical data...
Loading historical data...
Loading historical data...
Loading historical data...
Loading historical data...
Loading historical data...

Documentation

Showing up to 5 results
|